CW2377 Weather Reports


Display with metric or nautical units.
time (UTC)temp
F
wind
direction
speed
MPH
gust
MPH
rain 1hr
in
rain 24hr
in
rain mn
in
humidity
%
barometer
mb
20260504023704 60 209 0.0 0.0 0.00 0.00 0.00 58 1005.0
20260504022703 60 209 0.0 0.0 0.00 0.00 0.00 59 1004.9
20260504022204 60 209 0.0 0.0 0.00 0.00 0.00 58 1004.9
20260504021704 60 209 0.0 0.0 0.00 0.00 0.00 57 1004.9
20260504021203 60 209 0.0 0.0 0.00 0.00 0.00 58 1004.8
20260504020703 60 209 0.0 0.0 0.00 0.00 0.00 58 1004.8
20260504020204 59 209 0.0 0.0 0.00 0.00 0.00 58 1004.7
20260504015704 59 209 0.0 0.0 0.00 0.00 0.00 59 1004.7
20260504014703 60 209 0.0 0.0 0.00 0.00 0.00 59 1004.6
20260504014204 60 209 0.0 0.0 0.00 0.00 0.00 59 1004.7
20260504013704 60 209 0.0 0.0 0.00 0.00 0.00 58 1004.6
20260504013203 61 209 0.0 0.0 0.00 0.00 0.00 56 1004.5
20260504012204 62 209 0.0 0.0 0.00 0.00 0.00 54 1004.4
20260504011203 63 209 0.0 0.0 0.00 0.00 0.00 52 1004.3
20260504010704 63 209 0.0 0.0 0.00 0.00 0.00 51 1004.3
20260504010204 63 209 0.0 0.0 0.00 0.00 0.00 51 1004.2
20260504005704 64 209 0.0 0.0 0.00 0.00 0.00 50 1004.2
20260504005204 64 209 0.0 0.0 0.00 0.00 0.00 50 1004.2
20260504004704 64 209 0.0 0.0 0.00 0.00 0.00 49 1004.2
20260504004204 65 209 0.0 0.0 0.00 0.00 0.00 49 1004.2
20260504003704 65 209 0.0 0.0 0.00 0.00 0.00 48 1004.3
20260504002704 65 209 0.0 0.0 0.00 0.00 0.00 48 1004.3
20260504002203 66 209 0.0 0.0 0.00 0.00 0.00 47 1004.2
20260504001703 66 209 0.0 0.0 0.00 0.00 0.00 47 1004.2
20260504001204 66 209 0.0 0.0 0.00 0.00 0.00 47 1004.2
20260504000204 66 209 0.0 0.0 0.00 0.00 0.00 46 1004.3
20260503235704 66 209 0.0 0.0 0.00 0.00 0.00 45 1004.2
20260503235204 66 209 0.0 0.0 0.00 0.00 0.00 45 1004.3
20260503234704 67 209 0.0 0.0 0.00 0.00 0.00 46 1004.2
20260503233703 67 209 0.0 0.0 0.00 0.00 0.00 44 1004.3
20260503233204 67 209 0.0 0.0 0.00 0.00 0.00 44 1004.3
20260503232703 67 209 0.0 0.0 0.00 0.00 0.00 43 1004.3
20260503232203 67 209 0.0 0.0 0.00 0.00 0.00 43 1004.4
20260503231704 67 209 0.0 0.0 0.00 0.00 0.00 43 1004.5
20260503230703 68 209 0.0 0.0 0.00 0.00 0.00 44 1004.4
20260503230203 68 209 0.0 0.0 0.00 0.00 0.00 44 1004.4
20260503225704 68 209 0.0 0.0 0.00 0.00 0.00 44 1004.5
20260503225203 67 209 1.0 12.0 0.00 0.00 0.00 42 1004.5
20260503224204 67 354 0.0 0.0 0.00 0.00 0.00 45 1004.5
20260503223703 67 354 0.0 0.0 0.00 0.00 0.00 44 1004.5
20260503222704 67 354 0.0 0.0 0.00 0.00 0.00 44 1004.7
20260503221703 67 354 0.0 0.0 0.00 0.00 0.00 44 1004.6
20260503220704 66 354 1.0 5.0 0.00 0.00 0.00 43 1004.7
20260503220204 67 0 0.0 0.0 0.00 0.00 0.00 46 1004.8
20260503215203 67 0 0.0 0.0 0.00 0.00 0.00 42 1004.9
20260503214704 67 0 0.0 0.0 0.00 0.00 0.00 43 1005.0
20260503214204 67 0 0.0 0.0 0.00 0.00 0.00 43 1005.1
20260503213705 67 0 0.0 5.0 0.00 0.00 0.00 41 1005.2
20260503212704 67 346 1.0 8.0 0.00 0.00 0.00 43 1005.3
20260503212203 67 325 0.0 0.0 0.00 0.00 0.00 42 1005.4
20260503211703 67 325 0.0 7.0 0.00 0.00 0.00 44 1005.4
20260503211204 67 71 0.0 7.0 0.00 0.00 0.00 42 1005.5
20260503210703 67 73 0.0 0.0 0.00 0.00 0.00 43 1005.6
20260503210203 68 73 0.0 5.0 0.00 0.00 0.00 44 1005.7
20260503205703 68 100 0.0 5.0 0.00 0.00 0.00 42 1005.8
20260503205203 68 100 0.0 5.0 0.00 0.00 0.00 39 1005.9
20260503204704 68 0 0.0 3.0 0.00 0.00 0.00 41 1005.9
20260503204204 67 0 0.0 0.0 0.00 0.00 0.00 43 1006.2
20260503203703 66 0 0.0 1.0 0.00 0.00 0.00 44 1006.1
20260503203203 67 0 0.0 5.0 0.00 0.00 0.00 42 1006.2
20260503202704 67 0 0.0 20.0 0.00 0.00 0.00 40 1006.3
20260503202204 67 0 2.0 18.0 0.00 0.00 0.00 41 1006.5
20260503201703 67 0 1.0 9.0 0.00 0.00 0.00 43 1006.5
20260503201203 67 133 0.0 0.0 0.00 0.00 0.00 46 1006.6
20260503200704 67 133 0.0 8.0 0.00 0.00 0.00 47 1006.8
20260503200203 66 133 0.0 8.0 0.00 0.00 0.00 49 1007.0
20260503195204 65 335 0.0 0.0 0.00 0.00 0.00 49 1007.2
20260503194703 65 335 0.0 0.0 0.00 0.00 0.00 50 1007.5
20260503194203 64 335 0.0 0.0 0.00 0.00 0.00 48 1007.5
20260503193703 65 335 0.0 3.0 0.00 0.00 0.00 48 1007.7
20260503193203 65 358 1.0 3.0 0.00 0.00 0.00 47 1007.7
20260503192704 65 355 0.0 7.0 0.00 0.00 0.00 50 1007.6
20260503192204 64 0 0.0 0.0 0.00 0.00 0.00 51 1007.6
20260503191703 63 0 1.0 7.0 0.00 0.00 0.00 52 1007.6
20260503190204 62 227 0.0 3.0 0.00 0.00 0.00 50 1007.7
20260503185703 62 227 0.0 9.0 0.00 0.00 0.00 51 1007.7
20260503184704 62 0 0.0 2.0 0.00 0.00 0.00 50 1007.8
20260503184203 62 0 2.0 21.0 0.00 0.00 0.00 49 1007.8
20260503183703 63 213 0.0 14.0 0.00 0.00 0.00 49 1007.9
20260503183204 63 137 0.0 0.0 0.00 0.00 0.00 50 1007.9
20260503182204 62 0 0.0 0.0 0.00 0.00 0.00 53 1008.1
20260503181703 61 0 0.0 16.0 0.00 0.00 0.00 54 1008.3
20260503180703 61 358 0.0 9.0 0.00 0.00 0.00 54 1008.5
20260503180204 60 333 0.0 0.0 0.00 0.00 0.00 56 1008.6
20260503175705 59 333 1.0 6.0 0.00 0.00 0.00 55 1008.8
20260503175204 60 0 0.0 0.0 0.00 0.00 0.00 57 1009.0
20260503174704 60 0 0.0 0.0 0.00 0.00 0.00 56 1009.1
20260503174204 60 0 0.0 7.0 0.00 0.00 0.00 54 1009.3
20260503173704 60 279 1.0 10.0 0.00 0.00 0.00 55 1009.4
20260503173203 59 0 0.0 9.0 0.00 0.00 0.00 55 1009.6
20260503172204 60 182 2.0 15.0 0.00 0.00 0.00 56 1009.8
20260503171203 58 0 0.0 0.0 0.00 0.00 0.00 61 1010.1
20260503170703 57 0 0.0 13.0 0.00 0.00 0.00 64 1010.2
20260503170204 56 76 0.0 8.0 0.00 0.00 0.00 65 1010.4
20260503160204 54 352 0.0 0.0 0.00 0.00 0.00 70 1011.5
20260503150704 58 75 0.0 0.0 0.00 0.00 0.00 55 1011.7
20260503150204 58 288 0.0 3.0 0.00 0.00 0.00 56 1011.6
20260503140203 54 236 0.0 0.0 0.00 0.00 0.00 57 1012.3
20260503131204 53 0 0.0 0.0 0.00 0.00 0.00 58 1012.6
20260503130704 52 0 0.0 0.0 0.00 0.00 0.00 58 1012.7
20260503130204 52 0 0.0 0.0 0.00 0.00 0.00 59 1012.8
20260503120203 50 0 0.0 0.0 0.00 0.00 0.00 60 1012.5
20260503110204 49 0 0.0 0.0 0.00 0.00 0.00 60 1012.0
20260503100204 48 0 0.0 0.0 0.00 0.00 0.00 58 1012.3
20260503090203 47 0 0.0 0.0 0.00 0.00 0.00 58 1012.6
20260503080703 47 0 0.0 0.0 0.00 0.00 0.00 58 1013.0
20260503080204 47 0 0.0 0.0 0.00 0.00 0.00 57 1013.0
20260503072204 46 0 0.0 0.0 0.00 0.00 0.00 61 1013.2
20260503071703 46 0 0.0 0.0 0.00 0.00 0.00 60 1013.2
20260503071203 46 0 0.0 0.0 0.00 0.00 0.00 60 1013.2
20260503070703 46 0 0.0 0.0 0.00 0.00 0.00 60 1013.3
20260503070205 46 0 0.0 0.0 0.00 0.00 0.00 60 1013.3
20260503054704 46 0 0.0 0.0 0.00 0.00 0.00 59 1013.9
20260503054204 47 0 0.0 0.0 0.00 0.00 0.00 59 1013.9
20260503053703 47 0 0.0 0.0 0.00 0.00 0.00 58 1014.0
20260503053203 47 0 0.0 0.0 0.00 0.00 0.00 58 1014.0
20260503052704 47 0 0.0 0.0 0.00 0.00 0.00 59 1014.0
20260503052203 47 0 0.0 0.0 0.00 0.00 0.00 58 1014.1
20260503051703 47 0 0.0 0.0 0.00 0.00 0.00 58 1014.1
20260503051205 47 0 0.0 0.0 0.00 0.00 0.00 57 1014.2
20260503050704 47 0 0.0 0.0 0.00 0.00 0.00 57 1014.2
20260503050203 47 0 0.0 0.0 0.00 0.00 0.00 58 1014.2
20260503045703 47 0 0.0 0.0 0.00 0.00 0.00 58 1014.2
20260503044704 47 0 0.0 0.0 0.00 0.00 0.00 58 1014.3
20260503044203 47 0 0.0 0.0 0.00 0.00 0.00 58 1014.3
20260503043703 47 0 0.0 0.0 0.00 0.00 0.00 58 1014.3
20260503043203 47 0 0.0 0.0 0.00 0.00 0.00 58 1014.3
20260503042703 47 0 0.0 0.0 0.00 0.00 0.00 58 1014.3
20260503042203 47 0 0.0 0.0 0.00 0.00 0.00 58 1014.3
20260503041703 47 0 0.0 0.0 0.00 0.00 0.00 58 1014.4
20260503041204 47 0 0.0 0.0 0.00 0.00 0.00 58 1014.4
20260503040704 47 0 0.0 0.0 0.00 0.00 0.00 58 1014.5
20260503040204 47 0 0.0 0.0 0.00 0.00 0.00 58 1014.5
20260503035704 47 0 0.0 0.0 0.00 0.00 0.00 58 1014.5
20260503035203 47 0 0.0 0.0 0.00 0.00 0.00 57 1014.6
20260503034703 47 0 0.0 0.0 0.00 0.00 0.00 57 1014.6
20260503033703 48 0 0.0 0.0 0.00 0.00 0.00 57 1014.6
20260503033203 48 0 0.0 0.0 0.00 0.00 0.00 57 1014.6
20260503032704 48 0 0.0 0.0 0.00 0.00 0.00 56 1014.6
20260503032203 48 0 0.0 0.0 0.00 0.00 0.00 56 1014.6
20260503031705 48 0 0.0 0.0 0.00 0.00 0.00 56 1014.7
20260503031204 48 0 0.0 0.0 0.00 0.00 0.00 56 1014.7
20260503030703 48 0 0.0 0.0 0.00 0.00 0.00 56 1014.7
20260503025704 48 0 0.0 0.0 0.00 0.00 0.00 56 1014.8
20260503025204 48 0 0.0 0.0 0.00 0.00 0.00 56 1014.8
20260503024703 48 0 0.0 0.0 0.00 0.00 0.00 55 1014.8
20260503024204 48 0 0.0 0.0 0.00 0.00 0.00 56 1014.8